Free Severe Weather Alerts by Email and Text Message   

 
Follow iAlert.com on twitter @ialertcom
Search For Active Alerts in Your Area  
  Hi Guest:  [ Sign-up / Services ] [ Login ]

Current weather by "City, St" or "zip code"  

 

Advertise Here

Hazardous Weather Conditions

No active alerts for SAN ANTONIO, TEXAS

Current Conditions: SAN ANTONIO, TEXAS

Fair


35.0 F

Last Updated on Dec 15 2018, 7:55 am CST
Humidity: 60%
Wind Speed: N 0.0 mph
Barometer 30.28 in
Dewpoint: 22.3 F
Visibility: 10.00 mi
Precip: --
Heat Index: NA
Wind Chill: NA
Current conditions at:

Castroville Municipal Airport, TX (KCVB)

Lat: 29.34 Lon: -98.850

Local Radar Image active severe weather and emergency alerts image image weather storm and storm spotter reports image weather observation monitoring service image
Local
Radar
Active
Alerts
Storm Reports Weather
Monitoring

Weather Alert Notification Services


ialert severe weather and emergency alerts by text message and email ialert daily weather forecast by email and text message service ialert real-time weather-observation monitoring and alert notification service ialert storm report monitoring alert notification

Observation History for SAN ANTONIO, TEXAS


Time Wind
(mph)
Vis
(mi)
Weather Precip (in) Temperature (F) Relative
Humidity
Wind
Chill
(°F)
Heat
Index
(°F)
Pressure
Air Dwpt altimeter
(in)
sea level
(mb)
7:55 am CST N 0.0 10.00 Fair -- 35.0 22.3 60% NA NA 30.28 M
7:35 am CST N 0.0 7.00 Fair -- 33.0 22.8 66% NA NA 30.28 M
6:55 am CST NW 6.9 5.00 Fair with Haze -- 34.0 23.0 65% 28 NA 30.27 M
6:35 am CST NW 5.8 7.00 Fair -- 35.0 23.0 63% 30 NA 30.26 M
5:55 am CST N 6.9 7.00 Fair -- 37.0 22.8 58% 32 NA 30.25 M
4:55 am CST N 0.0 7.00 Fair -- 38.0 22.8 54% NA NA 30.23 M
4:35 am CST NW 4.6 7.00 Fair -- 37.0 24.6 62% 33 NA 30.23 M
3:55 am CST W 9.2 7.00 Fair -- 37.0 25.5 63% 30 NA 30.24 M
3:35 am CST W 4.6 7.00 Fair -- 38.0 25.9 61% 34 NA 30.24 M
2:55 am CST W 4.6 7.00 Fair -- 41.0 25.0 53% 38 NA 30.23 M
2:35 am CST N 0.0 7.00 Fair -- 37.0 27.3 67% NA NA 30.22 M
1:55 am CST NW 5.8 7.00 Fair -- 40.0 26.6 59% 36 NA 30.23 M
1:35 am CST NW 5.8 10.00 Fair -- 40.0 26.6 58% 36 NA 30.22 M
12:55 am CST NW 3.5 10.00 Fair -- 42.0 26.6 55% NA NA 30.23 M
11:55 pm CST W 5.8 10.00 Fair -- 45.0 24.6 44% 42 NA 30.23 M
11:35 pm CST W 3.5 10.00 Fair -- 42.0 28.0 58% NA NA 30.23 M
10:55 pm CST W 4.6 7.00 Fair -- 47.0 26.2 44% 45 NA 30.24 M
10:35 pm CST W 9.2 10.00 Fair -- 48.0 26.8 44% 44 NA 30.23 M
9:55 pm CST NW 9.2 10.00 Fair -- 47.0 28.8 49% 43 NA 30.22 M
9:35 pm CST NW 8.1 10.00 Fair -- 49.0 27.9 43% 46 NA 30.23 M
8:55 pm CST NW 6.9 7.00 Fair -- 48.0 30.4 50% 45 NA 30.22 M
7:55 pm CST NW 3.5 7.00 Fair -- 50.0 31.6 50% NA NA 30.21 M
7:35 pm CST NW 3.5 5.00 Fair with Haze -- 50.0 32.0 50% NA NA 30.20 M
6:55 pm CST NW 9.2 7.00 Fair -- 53.0 32.2 45% 50 NA 30.18 M

Regional Weather Observation:


San Antonio, San Antonio International Airport, TX (KSAT)

A Few Clouds
36.0 F

Kelly Air Force Base, TX (KSKF)

Fair
37.0 F

San Antonio, Stinson Municipal Airport, TX (KSSF)

Fair
35.0 F

Randolph Air Force Base, TX (KRND)

Fair
38.0 F

New Braunfels Regional Airport, TX (KBAZ)

Fair
40.0 F

Kerrville, Kerrville Municipal Airport/Louis Schreiner Field, TX (KERV)

Fair
31.0 F

Advertise Here

Advertise Here